Location: Proctor
(47.8934°N, 114.3048°W)
Time: 10:40:34
(UTC+00:00)

POLYITAN 1 - Visible Passes

Search period start: 29 June 2022 00:00
Search period end: 09 July 2022 00:00
Orbit: 586 x 606 km, 98.0° (Epoch: 28 June)

Date Brightness Start Highest point End Pass type
(mag) Time Alt. Az. Time Alt. Az. Time Alt. Az.
29 Jun ? 09:02:41 10° NNE 09:06:43 41° E 09:09:08 21° SSE visible
29 Jun ? 10:38:48 10° NNW 10:42:06 22° WNW 10:45:23 10° WSW visible
30 Jun ? 09:12:29 10° NNE 09:16:38 52° E 09:19:07 22° S visible
30 Jun ? 10:48:58 10° NNW 10:51:54 19° WNW 10:54:50 10° WSW visible
01 Jul ? 09:22:19 10° NNE 09:26:32 67° ESE 09:29:06 23° S visible
01 Jul ? 10:59:12 10° NNW 11:01:40 15° WNW 11:04:09 10° W visible
02 Jul ? 09:32:10 10° NNE 09:36:26 84° E 09:39:04 23° SSW visible
03 Jul ? 08:08:36 10° ENE 08:10:10 12° E 08:11:42 10° ESE visible
03 Jul ? 09:42:03 10° N 09:46:19 78° WNW 09:49:03 22° SSW visible
04 Jul ? 08:17:44 10° NE 08:20:09 15° E 08:22:20 11° ESE visible
04 Jul ? 09:51:59 10° N 09:56:11 61° WNW 09:59:00 20° SSW visible
05 Jul ? 08:27:09 10° NE 08:30:08 18° E 08:32:18 13° SE visible
05 Jul ? 10:01:55 10° N 10:06:02 49° WNW 10:08:58 18° SW visible
06 Jul ? 08:36:42 10° NE 08:40:06 23° E 08:42:15 16° SE visible
06 Jul ? 10:11:53 10° N 10:15:51 39° WNW 10:18:55 15° SW visible
07 Jul ? 08:46:21 10° NE 08:50:03 28° E 08:52:13 19° SE visible
07 Jul ? 10:21:53 10° N 10:25:40 32° WNW 10:28:52 13° SW visible
08 Jul ? 08:56:03 10° NNE 08:59:59 35° E 09:02:09 21° SSE visible
08 Jul ? 10:31:55 10° N 10:35:28 26° WNW 10:38:49 11° WSW visible
